Skip Page Navigation
NASA JPL Caltech
NASA Logo - Jet Propulsion Laboratory + View the NASA Portal
+ Near-Earth Object (NEO) Program
Search JPL
JPL Home Earth Solar System Stars & Galaxies Technology
JPL Solar System Dynamics
BODIES ORBITS EPHEMERIDES TOOLS PHYSICAL DATA DISCOVERY FAQ SITE MAP
JPL Small-Body Database Browser
Search: [ help ]  
11036 (1989 AW5)
Classification: Main-belt Asteroid          SPK-ID: 2011036
Ephemeris | Orbit Diagram | Orbital Elements | Physical Parameters | Discovery Circumstances ]

[ show orbit diagram ]
Orbital Elements at Epoch 2456400.5 (2013-Apr-18.0) TDB
Reference: MPO244284 (heliocentric ecliptic J2000)
 Element Value Uncertainty (1-sigma)   Units 
e 0.1095083 n/a  
a 2.6064648 n/a AU
q 2.3210353 n/a AU
i 3.11652 n/a deg
node 95.58613 n/a deg
peri 354.87426 n/a deg
M 300.59617 n/a deg
tp 2456654.1227287
(2013-Dec-27.62272870)
n/a JED
period 1537.0083431
4.21
n/a
n/a
d
yr
n 0.23422124 n/a deg/d
Q 2.8918943 n/a AU
  Orbit Determination Parameters
   # obs. used (total)      777  
   first obs. used      1989-??-??  
   last obs. used      2012-11-07  
   # oppositions      14  
   planetary ephem.      DE403  
   condition code      0  
   fit RMS      0.59  
   data source      MPC:mpn  
   producer      MPCLINUX  

Additional Information
 T_jup = 3.401 

Ephemeris | Orbit Diagram | Orbital Elements | Physical Parameters | Discovery Circumstances ]

Physical Parameter Table
Parameter Symbol Value Units Sigma Reference Notes
absolute magnitude H 14.0 mag n/a PDS3 (MPC 35221)  

11036 (1989 AW5)          Discovered 1989-Jan-04 by McNaught, R. H. at Siding Spring (413)
Reference: 19990728/Numbers.arcLast Updated: 2004-04-19

Alternate Designations
 1989 AW5 = 1993 BY1 
Ephemeris | Orbit Diagram | Orbital Elements | Physical Parameters | Discovery Circumstances ]
ABOUT SSD CREDITS/AWARDS PRIVACY/COPYRIGHT GLOSSARY LINKS
FirstGov 2013-May-22 15:57 UT
(server date/time)  
NASA Home Page
Site Manager:   Donald K. Yeomans
Webmaster  Alan B. Chamberlin